Location: Zürich
(47.3769°N, 8.5417°E)
Time: 10:36:05
(UTC+01:00)

ISS - Pass Details

Date: 01 October 2023
Orbit: 416 x 417 km, 51.6° (Epoch: 01 December)

Event Time Altitude Azimuth Distance (km) Brightness Sun altitude
Rises 20:50:02 0° 288° (WNW) 2,367 1.8 -18.3°
Reaches altitude 10° 20:52:28 10° 272° (W) 1,495 0.2 -18.7°
Maximum altitude 20:55:02 21° 221° (SW) 1,003 -1.6 -19.1°
Enters shadow 20:56:17 17° 191° (S) 1,135 -1.7 -19.3°
